Time,TemperatureF,DewpointF,PressureIn,WindDirection,WindDirectionDegrees,WindSpeedMPH,WindSpeedGustMPH,Humidity,HourlyPrecipIn,Conditions,Clouds,dailyrainin,SoftwareType,DateUTC
2013-07-22 00:02:00,59.5,57.2,30.13,ENE,67,5.0,8.0,92,0.00,,,0.00,meteohub,2013-07-21 23:02:00,
2013-07-22 00:07:00,59.5,57.2,30.13,ENE,67,3.0,9.0,92,0.00,,,0.00,meteohub,2013-07-21 23:07:00,
2013-07-22 00:12:00,59.4,57.0,30.13,ENE,67,4.0,9.0,92,0.00,,,0.00,meteohub,2013-07-21 23:12:00,
2013-07-22 00:17:00,59.4,57.4,30.13,NE,45,3.0,9.0,93,0.00,,,0.00,meteohub,2013-07-21 23:17:00,
2013-07-22 00:22:00,59.4,57.4,30.13,East,90,4.0,8.0,93,0.00,,,0.00,meteohub,2013-07-21 23:22:00,
2013-07-22 00:27:00,59.4,57.4,30.13,ESE,112,4.0,7.0,93,0.00,,,0.00,meteohub,2013-07-21 23:27:00,
2013-07-22 00:32:00,59.4,57.4,30.13,East,90,4.0,7.0,93,0.00,,,0.00,meteohub,2013-07-21 23:32:00,
2013-07-22 00:37:00,59.4,57.4,30.13,East,90,4.0,9.0,93,0.00,,,0.00,meteohub,2013-07-21 23:37:00,
2013-07-22 00:42:00,59.4,57.4,30.13,ESE,112,3.0,9.0,93,0.00,,,0.00,meteohub,2013-07-21 23:42:00,
2013-07-22 00:47:00,59.2,57.4,30.13,ESE,112,4.0,9.0,94,0.00,,,0.00,meteohub,2013-07-21 23:47:00,
2013-07-22 00:52:00,59.2,57.4,30.13,ENE,67,4.0,6.0,94,0.00,,,0.00,meteohub,2013-07-21 23:52:00,
2013-07-22 00:57:00,59.2,57.4,30.13,ENE,67,3.0,7.0,94,0.00,,,0.00,meteohub,2013-07-21 23:57:00,
2013-07-22 01:02:00,59.2,57.4,30.13,East,90,4.0,7.0,94,0.00,,,0.00,meteohub,2013-07-22 00:02:00,
2013-07-22 01:07:00,59.2,57.4,30.13,ESE,112,5.0,7.0,94,0.00,,,0.00,meteohub,2013-07-22 00:07:00,
2013-07-22 01:12:00,59.2,57.4,30.13,ESE,112,7.0,7.0,94,0.00,,,0.00,meteohub,2013-07-22 00:12:00,
2013-07-22 01:17:00,59.2,57.4,30.13,East,90,4.0,7.0,94,0.00,,,0.00,meteohub,2013-07-22 00:17:00,
2013-07-22 01:22:00,59.2,57.7,30.13,East,90,4.0,7.0,95,0.00,,,0.00,meteohub,2013-07-22 00:22:00,
2013-07-22 01:27:00,59.0,57.6,30.13,SE,135,4.0,7.0,95,0.00,,,0.00,meteohub,2013-07-22 00:27:00,
2013-07-22 01:32:00,59.0,57.6,30.13,East,90,3.0,8.0,95,0.00,,,0.00,meteohub,2013-07-22 00:32:00,
2013-07-22 01:37:00,59.0,57.6,30.13,East,90,5.0,8.0,95,0.00,,,0.00,meteohub,2013-07-22 00:37:00,
2013-07-22 01:43:00,59.0,57.6,30.13,East,90,2.0,8.0,95,0.00,,,0.00,meteohub,2013-07-22 00:43:00,
2013-07-22 01:48:00,59.0,57.6,30.13,SE,135,4.0,7.0,95,0.00,,,0.00,meteohub,2013-07-22 00:48:00,
2013-07-22 01:53:00,59.0,57.6,30.13,East,90,7.0,8.0,95,0.00,,,0.00,meteohub,2013-07-22 00:53:00,
2013-07-22 01:58:00,59.0,57.6,30.13,East,90,3.0,8.0,95,0.00,,,0.00,meteohub,2013-07-22 00:58:00,
2013-07-22 02:03:00,59.0,57.6,30.13,ESE,112,6.0,8.0,95,0.00,,,0.00,meteohub,2013-07-22 01:03:00,
2013-07-22 02:08:00,59.0,57.6,30.10,East,90,5.0,7.0,95,0.00,,,0.00,meteohub,2013-07-22 01:08:00,
2013-07-22 02:13:00,58.8,57.4,30.10,ESE,112,4.0,6.0,95,0.00,,,0.00,meteohub,2013-07-22 01:13:00,
2013-07-22 02:18:00,58.8,57.7,30.10,East,90,6.0,8.0,96,0.01,,,0.01,meteohub,2013-07-22 01:18:00,
2013-07-22 02:23:00,58.8,57.7,30.10,ENE,67,4.0,8.0,96,0.01,,,0.01,meteohub,2013-07-22 01:23:00,
2013-07-22 02:28:00,58.6,57.6,30.10,East,90,6.0,9.0,96,0.01,,,0.01,meteohub,2013-07-22 01:28:00,
2013-07-22 02:33:00,58.6,57.6,30.10,ENE,67,6.0,9.0,96,0.00,,,0.01,meteohub,2013-07-22 01:33:00,
2013-07-22 02:39:00,58.6,57.6,30.10,ENE,67,5.0,10.0,96,0.00,,,0.01,meteohub,2013-07-22 01:39:00,
2013-07-22 02:44:00,58.6,57.6,30.10,ENE,67,4.0,10.0,96,0.00,,,0.01,meteohub,2013-07-22 01:44:00,
2013-07-22 02:49:00,58.5,57.6,30.10,ESE,112,5.0,10.0,97,0.00,,,0.01,meteohub,2013-07-22 01:49:00,
2013-07-22 02:54:00,58.5,57.6,30.10,East,90,6.0,8.0,97,0.00,,,0.01,meteohub,2013-07-22 01:54:00,
2013-07-22 02:59:00,58.5,57.6,30.10,NE,45,7.0,8.0,97,0.00,,,0.01,meteohub,2013-07-22 01:59:00,
2013-07-22 03:04:00,58.5,57.6,30.10,East,90,8.0,12.0,97,0.00,,,0.01,meteohub,2013-07-22 02:04:00,
2013-07-22 03:09:00,58.3,57.4,30.10,ENE,67,4.0,12.0,97,0.00,,,0.01,meteohub,2013-07-22 02:09:00,
2013-07-22 03:14:00,58.3,57.4,30.10,East,90,5.0,12.0,97,0.00,,,0.01,meteohub,2013-07-22 02:14:00,
2013-07-22 03:19:00,58.3,57.7,30.10,ESE,112,4.0,10.0,98,0.00,,,0.01,meteohub,2013-07-22 02:19:00,
2013-07-22 03:24:00,58.3,57.7,30.10,East,90,5.0,9.0,98,0.00,,,0.01,meteohub,2013-07-22 02:24:00,
2013-07-22 03:30:00,58.3,57.7,30.10,ENE,67,5.0,9.0,98,0.00,,,0.01,meteohub,2013-07-22 02:30:00,
2013-07-22 03:35:00,58.1,57.6,30.10,East,90,6.0,7.0,98,0.00,,,0.01,meteohub,2013-07-22 02:35:00,
2013-07-22 03:40:00,58.1,57.6,30.10,ENE,67,3.0,6.0,98,0.00,,,0.02,meteohub,2013-07-22 02:40:00,
2013-07-22 03:45:00,58.1,57.6,30.10,ENE,67,9.0,9.0,98,0.00,,,0.02,meteohub,2013-07-22 02:45:00,
2013-07-22 03:50:00,58.1,57.6,30.10,ENE,67,6.0,9.0,98,0.00,,,0.02,meteohub,2013-07-22 02:50:00,
2013-07-22 03:55:00,58.1,57.6,30.10,ENE,67,6.0,9.0,98,0.00,,,0.02,meteohub,2013-07-22 02:55:00,
2013-07-22 04:00:00,58.1,57.6,30.10,East,90,6.0,9.0,98,0.00,,,0.02,meteohub,2013-07-22 03:00:00,
2013-07-22 04:05:00,58.1,57.6,30.10,NE,45,5.0,6.0,98,0.00,,,0.02,meteohub,2013-07-22 03:05:00,
2013-07-22 04:10:00,58.1,57.6,30.10,NE,45,5.0,6.0,98,0.00,,,0.02,meteohub,2013-07-22 03:10:00,
2013-07-22 04:15:00,58.1,57.6,30.10,ENE,67,4.0,6.0,98,0.00,,,0.02,meteohub,2013-07-22 03:15:00,
2013-07-22 04:20:00,58.1,57.6,30.10,ENE,67,7.0,7.0,98,0.00,,,0.02,meteohub,2013-07-22 03:20:00,
2013-07-22 04:26:00,57.9,57.4,30.10,NE,45,6.0,8.0,98,0.00,,,0.02,meteohub,2013-07-22 03:26:00,
2013-07-22 04:31:00,57.9,57.4,30.10,East,90,4.0,8.0,98,0.00,,,0.02,meteohub,2013-07-22 03:31:00,
2013-07-22 04:36:00,57.9,57.4,30.10,NE,45,6.0,8.0,98,0.00,,,0.02,meteohub,2013-07-22 03:36:00,
2013-07-22 04:41:00,57.9,57.4,30.10,East,90,3.0,8.0,98,0.00,,,0.02,meteohub,2013-07-22 03:41:00,
2013-07-22 04:46:00,57.9,57.4,30.10,East,90,4.0,6.0,98,0.00,,,0.02,meteohub,2013-07-22 03:46:00,
2013-07-22 04:51:00,57.9,57.4,30.07,East,90,5.0,6.0,98,0.00,,,0.02,meteohub,2013-07-22 03:51:00,
2013-07-22 04:56:00,57.9,57.4,30.07,ENE,67,3.0,6.0,98,0.00,,,0.02,meteohub,2013-07-22 03:56:00,
2013-07-22 05:01:00,57.9,57.4,30.07,East,90,5.0,6.0,98,0.00,,,0.02,meteohub,2013-07-22 04:01:00,
2013-07-22 05:02:00,57.9,57.4,30.07,ENE,67,4.0,6.0,98,0.00,,,0.02,meteohub,2013-07-22 04:02:00,
2013-07-22 05:04:00,57.9,57.4,30.07,East,90,4.0,6.0,98,0.00,,,0.02,meteohub,2013-07-22 04:04:00,
2013-07-22 05:09:00,57.9,57.4,30.10,ENE,67,7.0,7.0,98,0.00,,,0.02,meteohub,2013-07-22 04:09:00,
2013-07-22 05:14:00,57.9,57.4,30.10,East,90,6.0,8.0,98,0.00,,,0.02,meteohub,2013-07-22 04:14:00,
2013-07-22 05:19:00,57.9,57.4,30.10,East,90,5.0,8.0,98,0.00,,,0.02,meteohub,2013-07-22 04:19:00,
2013-07-22 05:24:00,57.9,57.4,30.10,East,90,5.0,8.0,98,0.00,,,0.02,meteohub,2013-07-22 04:24:00,
2013-07-22 05:29:00,57.9,57.4,30.10,NNE,22,3.0,8.0,98,0.00,,,0.02,meteohub,2013-07-22 04:29:00,
2013-07-22 05:34:00,57.9,57.4,30.10,ENE,67,5.0,8.0,98,0.00,,,0.02,meteohub,2013-07-22 04:34:00,
2013-07-22 05:40:00,57.9,57.4,30.10,East,90,4.0,6.0,98,0.00,,,0.02,meteohub,2013-07-22 04:40:00,
2013-07-22 05:45:00,57.9,57.4,30.10,East,90,6.0,7.0,98,0.00,,,0.02,meteohub,2013-07-22 04:45:00,
2013-07-22 05:50:00,57.9,57.4,30.10,East,90,3.0,7.0,98,0.00,,,0.02,meteohub,2013-07-22 04:50:00,
2013-07-22 05:55:00,57.9,57.4,30.10,East,90,5.0,8.0,98,0.00,,,0.02,meteohub,2013-07-22 04:55:00,
2013-07-22 06:00:00,57.9,57.4,30.10,ENE,67,4.0,8.0,98,0.00,,,0.02,meteohub,2013-07-22 05:00:00,
2013-07-22 06:05:00,57.9,57.4,30.10,East,90,6.0,8.0,98,0.00,,,0.02,meteohub,2013-07-22 05:05:00,
2013-07-22 06:10:00,57.9,57.4,30.10,East,90,5.0,8.0,98,0.00,,,0.02,meteohub,2013-07-22 05:10:00,
2013-07-22 06:15:00,57.9,57.4,30.10,ENE,67,6.0,9.0,98,0.00,,,0.02,meteohub,2013-07-22 05:15:00,
2013-07-22 06:20:00,57.9,57.4,30.10,East,90,6.0,9.0,98,0.00,,,0.02,meteohub,2013-07-22 05:20:00,
2013-07-22 06:25:00,57.9,57.4,30.10,East,90,5.0,9.0,98,0.00,,,0.02,meteohub,2013-07-22 05:25:00,
2013-07-22 06:30:00,57.9,57.4,30.10,ENE,67,5.0,9.0,98,0.00,,,0.02,meteohub,2013-07-22 05:30:00,
2013-07-22 06:36:00,57.9,57.4,30.10,East,90,4.0,9.0,98,0.00,,,0.02,meteohub,2013-07-22 05:36:00,
2013-07-22 06:41:00,57.9,57.4,30.10,NE,45,6.0,9.0,98,0.00,,,0.02,meteohub,2013-07-22 05:41:00,
2013-07-22 06:46:00,57.9,57.4,30.10,NE,45,6.0,8.0,98,0.00,,,0.02,meteohub,2013-07-22 05:46:00,
2013-07-22 06:51:00,57.9,57.4,30.10,East,90,6.0,8.0,98,0.00,,,0.02,meteohub,2013-07-22 05:51:00,
2013-07-22 06:56:00,57.9,57.4,30.10,East,90,8.0,10.0,98,0.00,,,0.02,meteohub,2013-07-22 05:56:00,
2013-07-22 07:01:00,57.9,57.0,30.10,NE,45,6.0,11.0,97,0.00,,,0.02,meteohub,2013-07-22 06:01:00,
2013-07-22 07:06:00,57.9,57.4,30.10,ENE,67,5.0,11.0,98,0.00,,,0.02,meteohub,2013-07-22 06:06:00,
2013-07-22 07:11:00,57.9,57.4,30.10,ENE,67,8.0,11.0,98,0.00,,,0.02,meteohub,2013-07-22 06:11:00,
2013-07-22 07:16:00,57.9,57.4,30.10,ENE,67,6.0,9.0,98,0.00,,,0.02,meteohub,2013-07-22 06:16:00,
2013-07-22 07:21:00,57.9,57.4,30.10,East,90,6.0,9.0,98,0.00,,,0.02,meteohub,2013-07-22 06:21:00,
2013-07-22 07:27:00,57.9,57.4,30.10,ENE,67,8.0,9.0,98,0.00,,,0.02,meteohub,2013-07-22 06:27:00,
2013-07-22 07:32:00,57.9,57.4,30.10,ENE,67,4.0,9.0,98,0.00,,,0.02,meteohub,2013-07-22 06:32:00,
2013-07-22 07:37:00,57.9,57.4,30.10,ENE,67,6.0,8.0,98,0.00,,,0.02,meteohub,2013-07-22 06:37:00,
2013-07-22 07:42:00,57.9,57.4,30.10,ENE,67,4.0,8.0,98,0.00,,,0.02,meteohub,2013-07-22 06:42:00,
2013-07-22 07:47:00,57.9,57.4,30.10,ENE,67,6.0,9.0,98,0.00,,,0.02,meteohub,2013-07-22 06:47:00,
2013-07-22 07:52:00,57.9,57.4,30.10,East,90,8.0,9.0,98,0.00,,,0.02,meteohub,2013-07-22 06:52:00,
2013-07-22 07:57:00,57.9,57.4,30.10,East,90,5.0,9.0,98,0.00,,,0.02,meteohub,2013-07-22 06:57:00,
2013-07-22 08:02:00,57.9,57.4,30.10,East,90,8.0,11.0,98,0.00,,,0.02,meteohub,2013-07-22 07:02:00,
2013-07-22 08:07:00,57.7,57.2,30.10,East,90,5.0,11.0,98,0.00,,,0.02,meteohub,2013-07-22 07:07:00,
2013-07-22 08:12:00,57.7,57.2,30.10,ENE,67,7.0,11.0,98,0.00,,,0.02,meteohub,2013-07-22 07:12:00,
2013-07-22 08:17:00,57.7,57.2,30.10,ENE,67,3.0,11.0,98,0.00,,,0.02,meteohub,2013-07-22 07:17:00,
2013-07-22 08:22:00,57.7,57.2,30.10,NE,45,6.0,9.0,98,0.00,,,0.02,meteohub,2013-07-22 07:22:00,
2013-07-22 08:27:00,57.7,57.2,30.10,ENE,67,7.0,11.0,98,0.00,,,0.02,meteohub,2013-07-22 07:27:00,
2013-07-22 08:32:00,57.7,57.2,30.10,East,90,8.0,11.0,98,0.00,,,0.02,meteohub,2013-07-22 07:32:00,
2013-07-22 08:37:00,57.7,57.2,30.10,ENE,67,4.0,11.0,98,0.00,,,0.02,meteohub,2013-07-22 07:37:00,
2013-07-22 08:42:00,57.6,57.0,30.10,NE,45,6.0,8.0,98,0.00,,,0.02,meteohub,2013-07-22 07:42:00,
2013-07-22 08:48:00,57.6,57.0,30.10,East,90,6.0,10.0,98,0.00,,,0.02,meteohub,2013-07-22 07:48:00,
2013-07-22 08:53:00,57.7,57.2,30.07,NE,45,5.0,10.0,98,0.00,,,0.02,meteohub,2013-07-22 07:53:00,
2013-07-22 08:58:00,57.7,57.2,30.07,ENE,67,6.0,10.0,98,0.00,,,0.02,meteohub,2013-07-22 07:58:00,
2013-07-22 09:03:00,57.7,57.2,30.07,NE,45,5.0,10.0,98,0.00,,,0.02,meteohub,2013-07-22 08:03:00,
2013-07-22 09:08:00,57.7,57.2,30.07,ESE,112,6.0,10.0,98,0.01,,,0.03,meteohub,2013-07-22 08:08:00,
2013-07-22 09:13:00,57.7,57.2,30.07,East,90,10.0,10.0,98,0.01,,,0.03,meteohub,2013-07-22 08:13:00,
2013-07-22 09:18:00,57.6,57.0,30.07,SE,135,6.0,11.0,98,0.01,,,0.03,meteohub,2013-07-22 08:18:00,
2013-07-22 09:23:00,57.6,57.0,30.07,East,90,8.0,11.0,98,0.01,,,0.03,meteohub,2013-07-22 08:23:00,
2013-07-22 09:28:00,57.7,57.2,30.07,NNE,22,6.0,11.0,98,0.00,,,0.03,meteohub,2013-07-22 08:28:00,
2013-07-22 09:33:00,57.6,57.0,30.07,ENE,67,7.0,9.0,98,0.00,,,0.03,meteohub,2013-07-22 08:33:00,
2013-07-22 09:38:00,57.6,57.0,30.07,East,90,4.0,11.0,98,0.00,,,0.03,meteohub,2013-07-22 08:38:00,
2013-07-22 09:44:00,57.6,57.0,30.07,ENE,67,6.0,11.0,98,0.00,,,0.03,meteohub,2013-07-22 08:44:00,
2013-07-22 09:49:00,57.6,57.0,30.07,ENE,67,6.0,11.0,98,0.00,,,0.03,meteohub,2013-07-22 08:49:00,
2013-07-22 09:54:00,57.6,57.0,30.07,ENE,67,7.0,10.0,98,0.00,,,0.03,meteohub,2013-07-22 08:54:00,
2013-07-22 09:59:00,57.6,57.0,30.07,East,90,6.0,10.0,98,0.00,,,0.03,meteohub,2013-07-22 08:59:00,
2013-07-22 10:04:00,57.7,57.2,30.07,East,90,6.0,10.0,98,0.00,,,0.03,meteohub,2013-07-22 09:04:00,
2013-07-22 10:09:00,57.9,57.4,30.07,NE,45,6.0,10.0,98,0.00,,,0.03,meteohub,2013-07-22 09:09:00,
2013-07-22 10:14:00,57.9,57.4,30.07,ENE,67,10.0,10.0,98,0.00,,,0.03,meteohub,2013-07-22 09:14:00,
2013-07-22 10:19:00,57.9,57.4,30.07,East,90,6.0,10.0,98,0.00,,,0.03,meteohub,2013-07-22 09:19:00,
2013-07-22 10:24:00,57.9,57.4,30.07,NNE,22,4.0,10.0,98,0.00,,,0.03,meteohub,2013-07-22 09:24:00,
2013-07-22 10:29:00,58.1,57.6,30.07,SE,135,6.0,10.0,98,0.00,,,0.03,meteohub,2013-07-22 09:29:00,
2013-07-22 10:35:00,58.1,57.6,30.07,ENE,67,6.0,10.0,98,0.00,,,0.03,meteohub,2013-07-22 09:35:00,
2013-07-22 10:40:00,58.1,57.6,30.07,NE,45,3.0,11.0,98,0.00,,,0.03,meteohub,2013-07-22 09:40:00,
2013-07-22 10:45:00,58.5,57.9,30.07,NE,45,4.0,11.0,98,0.00,,,0.03,meteohub,2013-07-22 09:45:00,
2013-07-22 10:50:00,58.5,57.9,30.07,ESE,112,6.0,10.0,98,0.00,,,0.03,meteohub,2013-07-22 09:50:00,
2013-07-22 10:55:00,58.5,57.9,30.07,ENE,67,4.0,10.0,98,0.00,,,0.03,meteohub,2013-07-22 09:55:00,
2013-07-22 11:00:00,58.6,58.1,30.07,East,90,5.0,10.0,98,0.00,,,0.03,meteohub,2013-07-22 10:00:00,
2013-07-22 11:05:00,58.8,58.3,30.07,ESE,112,4.0,11.0,98,0.00,,,0.03,meteohub,2013-07-22 10:05:00,
2013-07-22 11:10:00,58.8,58.3,30.07,ESE,112,6.0,11.0,98,0.00,,,0.03,meteohub,2013-07-22 10:10:00,
2013-07-22 11:15:00,59.0,58.1,30.07,East,90,9.0,11.0,97,0.00,,,0.03,meteohub,2013-07-22 10:15:00,
2013-07-22 11:20:00,59.0,58.1,30.07,East,90,5.0,9.0,97,0.00,,,0.03,meteohub,2013-07-22 10:20:00,
2013-07-22 11:26:00,59.2,58.3,30.07,East,90,9.0,9.0,97,0.00,,,0.03,meteohub,2013-07-22 10:26:00,
2013-07-22 11:31:00,59.0,57.9,30.07,East,90,6.0,9.0,96,0.00,,,0.03,meteohub,2013-07-22 10:31:00,
2013-07-22 11:36:00,59.2,58.1,30.07,East,90,5.0,9.0,96,0.00,,,0.03,meteohub,2013-07-22 10:36:00,
2013-07-22 11:41:00,59.2,58.1,30.07,ESE,112,6.0,11.0,96,0.00,,,0.03,meteohub,2013-07-22 10:41:00,
2013-07-22 11:46:00,59.2,58.1,30.07,East,90,6.0,11.0,96,0.00,,,0.03,meteohub,2013-07-22 10:46:00,
2013-07-22 11:51:00,59.2,58.1,30.07,East,90,4.0,11.0,96,0.00,,,0.03,meteohub,2013-07-22 10:51:00,
2013-07-22 11:56:00,59.4,58.3,30.07,East,90,10.0,10.0,96,0.00,,,0.03,meteohub,2013-07-22 10:56:00,
2013-07-22 12:01:00,59.5,58.5,30.07,East,90,5.0,11.0,96,0.00,,,0.03,meteohub,2013-07-22 11:01:00,
2013-07-22 12:06:00,59.7,58.6,30.07,ENE,67,11.0,11.0,96,0.00,,,0.03,meteohub,2013-07-22 11:06:00,
2013-07-22 12:11:00,59.5,58.1,30.07,NNE,22,8.0,13.0,95,0.00,,,0.03,meteohub,2013-07-22 11:11:00,
2013-07-22 12:16:00,59.7,58.3,30.07,East,90,8.0,13.0,95,0.00,,,0.03,meteohub,2013-07-22 11:16:00,
2013-07-22 12:22:00,59.7,58.3,30.07,East,90,9.0,13.0,95,0.00,,,0.03,meteohub,2013-07-22 11:22:00,
2013-07-22 12:27:00,59.7,58.3,30.07,East,90,7.0,11.0,95,0.00,,,0.03,meteohub,2013-07-22 11:27:00,
2013-07-22 12:32:00,59.9,58.5,30.07,East,90,7.0,11.0,95,0.00,,,0.03,meteohub,2013-07-22 11:32:00,
2013-07-22 12:37:00,59.9,58.5,30.07,East,90,7.0,11.0,95,0.00,,,0.03,meteohub,2013-07-22 11:37:00,
2013-07-22 12:42:00,60.1,58.6,30.07,NE,45,4.0,11.0,95,0.00,,,0.03,meteohub,2013-07-22 11:42:00,
2013-07-22 12:47:00,60.1,58.6,30.07,ESE,112,9.0,11.0,95,0.00,,,0.03,meteohub,2013-07-22 11:47:00,
2013-07-22 12:53:00,60.1,58.3,30.07,East,90,6.0,11.0,94,0.00,,,0.03,meteohub,2013-07-22 11:53:00,
2013-07-22 12:58:00,60.1,58.3,30.07,East,90,6.0,12.0,94,0.00,,,0.03,meteohub,2013-07-22 11:58:00,
2013-07-22 13:03:00,60.1,58.3,30.07,ESE,112,8.0,12.0,94,0.00,,,0.03,meteohub,2013-07-22 12:03:00,
2013-07-22 13:08:00,60.3,58.5,30.07,East,90,6.0,13.0,94,0.00,,,0.03,meteohub,2013-07-22 12:08:00,
2013-07-22 13:13:00,60.3,58.3,30.07,East,90,4.0,13.0,93,0.00,,,0.03,meteohub,2013-07-22 12:13:00,
2013-07-22 13:18:00,60.3,58.3,30.07,East,90,6.0,13.0,93,0.00,,,0.03,meteohub,2013-07-22 12:18:00,
2013-07-22 13:23:00,60.3,58.3,30.07,East,90,6.0,11.0,93,0.00,,,0.03,meteohub,2013-07-22 12:23:00,
2013-07-22 13:28:00,60.3,58.3,30.07,East,90,6.0,11.0,93,0.00,,,0.03,meteohub,2013-07-22 12:28:00,
2013-07-22 13:33:00,60.3,58.3,30.07,NNE,22,4.0,12.0,93,0.00,,,0.03,meteohub,2013-07-22 12:33:00,
2013-07-22 13:38:00,60.4,58.5,30.07,ENE,67,9.0,12.0,93,0.00,,,0.03,meteohub,2013-07-22 12:38:00,
2013-07-22 13:44:00,60.3,58.3,30.07,ENE,67,9.0,12.0,93,0.00,,,0.03,meteohub,2013-07-22 12:44:00,
2013-07-22 13:49:00,60.3,58.3,30.07,East,90,9.0,11.0,93,0.00,,,0.03,meteohub,2013-07-22 12:49:00,
2013-07-22 13:54:00,60.3,58.3,30.07,East,90,9.0,11.0,93,0.00,,,0.03,meteohub,2013-07-22 12:54:00,
2013-07-22 13:59:00,60.3,58.3,30.07,East,90,10.0,11.0,93,0.00,,,0.03,meteohub,2013-07-22 12:59:00,
2013-07-22 14:04:00,60.4,58.5,30.07,East,90,5.0,11.0,93,0.00,,,0.03,meteohub,2013-07-22 13:04:00,
2013-07-22 14:09:00,60.4,58.5,30.07,ENE,67,8.0,10.0,93,0.00,,,0.03,meteohub,2013-07-22 13:09:00,
2013-07-22 14:14:00,60.6,58.6,30.07,ENE,67,5.0,10.0,93,0.00,,,0.03,meteohub,2013-07-22 13:14:00,
2013-07-22 14:19:00,60.6,58.6,30.07,ESE,112,5.0,9.0,93,0.00,,,0.03,meteohub,2013-07-22 13:19:00,
2013-07-22 14:25:00,60.6,58.3,30.04,ENE,67,8.0,8.0,92,0.00,,,0.03,meteohub,2013-07-22 13:25:00,
2013-07-22 14:30:00,60.6,58.6,30.04,ENE,67,8.0,11.0,93,0.00,,,0.03,meteohub,2013-07-22 13:30:00,
2013-07-22 14:35:00,60.8,58.5,30.04,East,90,6.0,11.0,92,0.00,,,0.03,meteohub,2013-07-22 13:35:00,
2013-07-22 14:40:00,60.8,58.5,30.07,ENE,67,6.0,11.0,92,0.00,,,0.03,meteohub,2013-07-22 13:40:00,
2013-07-22 14:45:00,61.0,58.6,30.07,NE,45,5.0,11.0,92,0.00,,,0.03,meteohub,2013-07-22 13:45:00,
2013-07-22 14:50:00,61.0,58.6,30.07,East,90,5.0,10.0,92,0.00,,,0.03,meteohub,2013-07-22 13:50:00,
2013-07-22 14:55:00,61.0,58.3,30.04,East,90,6.0,9.0,91,0.00,,,0.03,meteohub,2013-07-22 13:55:00,
2013-07-22 15:00:00,61.2,58.5,30.04,East,90,6.0,11.0,91,0.00,,,0.03,meteohub,2013-07-22 14:00:00,
2013-07-22 15:05:00,61.2,58.5,30.04,ESE,112,6.0,11.0,91,0.00,,,0.03,meteohub,2013-07-22 14:05:00,
2013-07-22 15:10:00,61.3,58.6,30.04,East,90,6.0,11.0,91,0.00,,,0.03,meteohub,2013-07-22 14:10:00,
2013-07-22 15:15:00,61.3,58.6,30.04,ENE,67,6.0,10.0,91,0.00,,,0.03,meteohub,2013-07-22 14:15:00,
2013-07-22 15:21:00,61.3,58.6,30.04,NE,45,10.0,10.0,91,0.00,,,0.03,meteohub,2013-07-22 14:21:00,
2013-07-22 15:26:00,61.5,58.8,30.04,East,90,7.0,10.0,91,0.00,,,0.03,meteohub,2013-07-22 14:26:00,
2013-07-22 15:31:00,61.7,58.8,30.04,ENE,67,5.0,11.0,90,0.00,,,0.03,meteohub,2013-07-22 14:31:00,
2013-07-22 15:36:00,61.9,59.0,30.04,East,90,7.0,11.0,90,0.00,,,0.03,meteohub,2013-07-22 14:36:00,
2013-07-22 15:41:00,62.1,59.2,30.04,East,90,9.0,11.0,90,0.00,,,0.03,meteohub,2013-07-22 14:41:00,
2013-07-22 15:46:00,62.2,59.0,30.04,ESE,112,4.0,11.0,89,0.00,,,0.03,meteohub,2013-07-22 14:46:00,
2013-07-22 15:51:00,62.4,59.2,30.04,East,90,9.0,11.0,89,0.00,,,0.03,meteohub,2013-07-22 14:51:00,
2013-07-22 15:56:00,62.6,59.0,30.04,ENE,67,6.0,10.0,88,0.00,,,0.03,meteohub,2013-07-22 14:56:00,
2013-07-22 16:01:00,62.6,59.0,30.04,ENE,67,5.0,10.0,88,0.00,,,0.03,meteohub,2013-07-22 15:01:00,
2013-07-22 16:06:00,62.6,59.0,30.04,East,90,8.0,10.0,88,0.00,,,0.03,meteohub,2013-07-22 15:06:00,
2013-07-22 16:12:00,62.6,58.6,30.04,NE,45,6.0,10.0,87,0.00,,,0.03,meteohub,2013-07-22 15:12:00,
2013-07-22 16:17:00,62.8,58.8,30.04,ENE,67,6.0,10.0,87,0.00,,,0.03,meteohub,2013-07-22 15:17:00,
2013-07-22 16:22:00,63.0,59.0,30.04,East,90,4.0,11.0,87,0.00,,,0.03,meteohub,2013-07-22 15:22:00,
2013-07-22 16:27:00,63.1,59.2,30.04,ENE,67,5.0,11.0,87,0.00,,,0.03,meteohub,2013-07-22 15:27:00,
2013-07-22 16:32:00,63.3,59.0,30.04,East,90,5.0,11.0,86,0.00,,,0.03,meteohub,2013-07-22 15:32:00,
2013-07-22 16:37:00,63.3,59.0,30.04,East,90,6.0,11.0,86,0.00,,,0.03,meteohub,2013-07-22 15:37:00,
2013-07-22 16:42:00,63.3,58.8,30.04,East,90,5.0,11.0,85,0.00,,,0.03,meteohub,2013-07-22 15:42:00,
2013-07-22 16:47:00,63.5,59.2,30.04,ENE,67,8.0,11.0,86,0.00,,,0.03,meteohub,2013-07-22 15:47:00,
2013-07-22 16:52:00,63.5,58.8,30.01,East,90,10.0,11.0,85,0.00,,,0.03,meteohub,2013-07-22 15:52:00,
2013-07-22 16:57:00,63.3,58.5,30.01,ENE,67,8.0,13.0,84,0.00,,,0.03,meteohub,2013-07-22 15:57:00,
2013-07-22 17:03:00,63.1,58.3,30.01,East,90,6.0,13.0,84,0.00,,,0.03,meteohub,2013-07-22 16:03:00,
2013-07-22 17:08:00,63.1,58.6,30.01,East,90,5.0,13.0,85,0.00,,,0.03,meteohub,2013-07-22 16:08:00,
2013-07-22 17:13:00,63.1,58.6,30.01,East,90,5.0,11.0,85,0.00,,,0.03,meteohub,2013-07-22 16:13:00,
2013-07-22 17:18:00,63.1,58.6,30.01,East,90,11.0,11.0,85,0.00,,,0.03,meteohub,2013-07-22 16:18:00,
2013-07-22 17:23:00,63.1,58.6,30.01,ENE,67,9.0,12.0,85,0.00,,,0.03,meteohub,2013-07-22 16:23:00,
2013-07-22 17:28:00,63.0,58.5,30.01,East,90,6.0,12.0,85,0.00,,,0.03,meteohub,2013-07-22 16:28:00,
2013-07-22 17:33:00,63.0,58.5,30.01,East,90,10.0,12.0,85,0.00,,,0.03,meteohub,2013-07-22 16:33:00,
2013-07-22 17:38:00,62.8,58.5,30.01,East,90,6.0,12.0,86,0.00,,,0.03,meteohub,2013-07-22 16:38:00,
2013-07-22 17:43:00,62.8,58.5,30.01,ESE,112,6.0,12.0,86,0.00,,,0.03,meteohub,2013-07-22 16:43:00,
2013-07-22 17:48:00,62.8,58.5,30.01,East,90,9.0,12.0,86,0.00,,,0.03,meteohub,2013-07-22 16:48:00,
2013-07-22 17:53:00,62.8,58.5,30.01,East,90,6.0,12.0,86,0.00,,,0.03,meteohub,2013-07-22 16:53:00,
2013-07-22 17:59:00,62.6,58.3,30.01,East,90,8.0,12.0,86,0.00,,,0.03,meteohub,2013-07-22 16:59:00,
2013-07-22 18:04:00,62.6,58.3,30.01,East,90,6.0,13.0,86,0.00,,,0.03,meteohub,2013-07-22 17:04:00,
2013-07-22 18:09:00,62.6,58.3,30.01,ENE,67,8.0,13.0,86,0.00,,,0.03,meteohub,2013-07-22 17:09:00,
2013-07-22 18:14:00,62.4,58.5,30.01,ENE,67,9.0,13.0,87,0.00,,,0.03,meteohub,2013-07-22 17:14:00,
2013-07-22 18:19:00,62.2,58.3,30.01,NE,45,10.0,13.0,87,0.00,,,0.03,meteohub,2013-07-22 17:19:00,
2013-07-22 18:24:00,62.1,58.1,30.01,NE,45,6.0,13.0,87,0.00,,,0.03,meteohub,2013-07-22 17:24:00,
2013-07-22 18:29:00,62.1,58.5,30.01,ENE,67,8.0,13.0,88,0.00,,,0.03,meteohub,2013-07-22 17:29:00,
2013-07-22 18:34:00,62.1,58.5,30.01,ESE,112,8.0,11.0,88,0.00,,,0.03,meteohub,2013-07-22 17:34:00,
2013-07-22 18:39:00,62.1,58.5,30.01,ENE,67,10.0,10.0,88,0.00,,,0.03,meteohub,2013-07-22 17:39:00,
2013-07-22 18:45:00,61.9,58.3,30.01,East,90,8.0,10.0,88,0.00,,,0.03,meteohub,2013-07-22 17:45:00,
2013-07-22 18:50:00,61.9,58.3,30.01,East,90,10.0,13.0,88,0.00,,,0.03,meteohub,2013-07-22 17:50:00,
2013-07-22 18:55:00,61.7,58.5,30.01,East,90,5.0,13.0,89,0.00,,,0.03,meteohub,2013-07-22 17:55:00,
2013-07-22 19:00:00,61.7,58.5,30.01,East,90,5.0,11.0,89,0.00,,,0.03,meteohub,2013-07-22 18:00:00,
2013-07-22 19:05:00,61.7,58.5,30.01,East,90,6.0,11.0,89,0.00,,,0.03,meteohub,2013-07-22 18:05:00,
2013-07-22 19:12:00,61.5,58.6,30.01,East,90,10.0,13.0,90,0.00,,,0.03,meteohub,2013-07-22 18:12:00,
2013-07-22 19:17:00,61.3,58.5,30.01,ENE,67,6.0,13.0,90,0.00,,,0.03,meteohub,2013-07-22 18:17:00,
2013-07-22 19:22:00,61.3,58.5,30.01,NE,45,6.0,13.0,90,0.00,,,0.03,meteohub,2013-07-22 18:22:00,
2013-07-22 19:27:00,61.2,58.5,30.01,East,90,6.0,12.0,91,0.00,,,0.03,meteohub,2013-07-22 18:27:00,
2013-07-22 19:32:00,61.2,58.5,30.01,ENE,67,8.0,11.0,91,0.00,,,0.03,meteohub,2013-07-22 18:32:00,
2013-07-22 19:37:00,61.0,58.3,30.01,East,90,4.0,11.0,91,0.00,,,0.03,meteohub,2013-07-22 18:37:00,
2013-07-22 19:42:00,61.0,58.3,30.01,East,90,7.0,11.0,91,0.00,,,0.03,meteohub,2013-07-22 18:42:00,
2013-07-22 19:47:00,61.0,58.3,30.01,ENE,67,8.0,11.0,91,0.00,,,0.03,meteohub,2013-07-22 18:47:00,
2013-07-22 19:52:00,61.0,58.3,30.01,NE,45,6.0,11.0,91,0.00,,,0.03,meteohub,2013-07-22 18:52:00,
2013-07-22 19:57:00,61.0,58.6,30.01,ENE,67,8.0,10.0,92,0.00,,,0.03,meteohub,2013-07-22 18:57:00,
2013-07-22 20:07:00,61.0,58.6,30.01,East,90,11.0,11.0,92,0.00,,,0.03,meteohub,2013-07-22 19:07:00,
2013-07-22 20:12:00,61.0,58.6,30.01,East,90,5.0,11.0,92,0.00,,,0.03,meteohub,2013-07-22 19:12:00,
2013-07-22 20:17:00,60.8,58.5,30.01,East,90,10.0,11.0,92,0.00,,,0.03,meteohub,2013-07-22 19:17:00,
2013-07-22 20:22:00,60.8,58.5,30.01,ENE,67,4.0,11.0,92,0.00,,,0.03,meteohub,2013-07-22 19:22:00,
2013-07-22 20:29:00,60.8,58.5,30.01,East,90,6.0,11.0,92,0.00,,,0.03,meteohub,2013-07-22 19:29:00,
2013-07-22 20:35:00,60.8,58.5,30.01,East,90,6.0,10.0,92,0.00,,,0.03,meteohub,2013-07-22 19:35:00,
2013-07-22 20:42:00,60.6,58.3,30.01,ENE,67,8.0,11.0,92,0.00,,,0.03,meteohub,2013-07-22 19:42:00,
2013-07-22 20:47:00,60.6,58.6,30.01,ENE,67,6.0,11.0,93,0.00,,,0.03,meteohub,2013-07-22 19:47:00,
2013-07-22 20:52:00,60.6,58.6,30.01,ENE,67,6.0,11.0,93,0.00,,,0.03,meteohub,2013-07-22 19:52:00,
2013-07-22 20:57:00,60.6,58.6,30.01,North,0,5.0,11.0,93,0.00,,,0.03,meteohub,2013-07-22 19:57:00,
2013-07-22 21:02:00,60.6,58.6,30.01,ENE,67,6.0,10.0,93,0.00,,,0.03,meteohub,2013-07-22 20:02:00,
2013-07-22 21:07:00,60.6,58.6,30.01,East,90,6.0,10.0,93,0.00,,,0.03,meteohub,2013-07-22 20:07:00,
2013-07-22 21:12:00,60.6,58.6,30.01,East,90,9.0,9.0,93,0.00,,,0.03,meteohub,2013-07-22 20:12:00,
2013-07-22 21:17:00,60.6,58.6,30.01,NE,45,7.0,11.0,93,0.00,,,0.03,meteohub,2013-07-22 20:17:00,
2013-07-22 21:18:00,60.6,58.6,30.01,East,90,8.0,11.0,93,0.00,,,0.03,meteohub,2013-07-22 20:18:00,
2013-07-22 21:20:00,60.6,58.6,30.01,ENE,67,6.0,11.0,93,0.00,,,0.03,meteohub,2013-07-22 20:20:00,
2013-07-22 21:21:00,60.6,58.6,30.01,East,90,6.0,11.0,93,0.00,,,0.03,meteohub,2013-07-22 20:21:00,
2013-07-22 21:26:00,60.4,58.6,30.01,East,90,8.0,11.0,94,0.00,,,0.03,meteohub,2013-07-22 20:26:00,
2013-07-22 21:31:00,60.4,58.6,30.01,East,90,5.0,11.0,94,0.00,,,0.03,meteohub,2013-07-22 20:31:00,
2013-07-22 21:36:00,60.4,58.6,30.01,ENE,67,8.0,10.0,94,0.00,,,0.03,meteohub,2013-07-22 20:36:00,
2013-07-22 21:41:00,60.3,58.5,30.01,ENE,67,6.0,11.0,94,0.00,,,0.03,meteohub,2013-07-22 20:41:00,
2013-07-22 21:46:00,60.3,58.5,30.01,NE,45,6.0,11.0,94,0.00,,,0.03,meteohub,2013-07-22 20:46:00,
2013-07-22 21:51:00,60.3,58.5,30.01,East,90,8.0,11.0,94,0.00,,,0.03,meteohub,2013-07-22 20:51:00,
2013-07-22 21:56:00,60.3,58.5,30.01,ENE,67,5.0,10.0,94,0.00,,,0.03,meteohub,2013-07-22 20:56:00,
2013-07-22 22:01:00,60.1,58.3,30.01,ENE,67,4.0,10.0,94,0.00,,,0.03,meteohub,2013-07-22 21:01:00,
2013-07-22 22:07:00,60.1,58.3,30.01,ENE,67,10.0,11.0,94,0.00,,,0.03,meteohub,2013-07-22 21:07:00,
2013-07-22 22:12:00,60.1,58.3,30.01,ENE,67,6.0,11.0,94,0.00,,,0.03,meteohub,2013-07-22 21:12:00,
2013-07-22 22:17:00,60.1,58.6,30.01,ENE,67,6.0,11.0,95,0.00,,,0.03,meteohub,2013-07-22 21:17:00,
2013-07-22 22:22:00,60.1,58.6,30.01,ENE,67,6.0,10.0,95,0.00,,,0.03,meteohub,2013-07-22 21:22:00,
2013-07-22 22:27:00,59.9,58.5,30.01,ENE,67,7.0,10.0,95,0.00,,,0.03,meteohub,2013-07-22 21:27:00,
2013-07-22 22:32:00,59.9,58.5,30.01,NE,45,5.0,10.0,95,0.00,,,0.03,meteohub,2013-07-22 21:32:00,
2013-07-22 22:37:00,59.9,58.5,30.01,ENE,67,6.0,9.0,95,0.00,,,0.03,meteohub,2013-07-22 21:37:00,
2013-07-22 22:42:00,59.9,58.5,30.01,East,90,6.0,9.0,95,0.00,,,0.03,meteohub,2013-07-22 21:42:00,
2013-07-22 22:47:00,59.9,58.5,30.01,ENE,67,4.0,9.0,95,0.00,,,0.03,meteohub,2013-07-22 21:47:00,
2013-07-22 22:52:00,59.9,58.5,30.01,East,90,5.0,9.0,95,0.00,,,0.03,meteohub,2013-07-22 21:52:00,
2013-07-22 22:57:00,59.9,58.5,30.01,ENE,67,6.0,8.0,95,0.00,,,0.03,meteohub,2013-07-22 21:57:00,
2013-07-22 23:02:00,59.9,58.5,30.01,ENE,67,5.0,9.0,95,0.00,,,0.03,meteohub,2013-07-22 22:02:00,
2013-07-22 23:07:00,59.9,58.5,30.01,ENE,67,5.0,9.0,95,0.00,,,0.03,meteohub,2013-07-22 22:07:00,
2013-07-22 23:12:00,59.9,58.5,30.01,ENE,67,6.0,9.0,95,0.00,,,0.03,meteohub,2013-07-22 22:12:00,
2013-07-22 23:17:00,59.9,58.5,30.01,ENE,67,6.0,10.0,95,0.00,,,0.03,meteohub,2013-07-22 22:17:00,
2013-07-22 23:22:00,59.9,58.5,30.01,East,90,6.0,10.0,95,0.00,,,0.03,meteohub,2013-07-22 22:22:00,
2013-07-22 23:27:00,59.9,58.5,30.01,NE,45,8.0,10.0,95,0.00,,,0.03,meteohub,2013-07-22 22:27:00,
2013-07-22 23:32:00,59.9,58.5,30.01,East,90,7.0,10.0,95,0.00,,,0.03,meteohub,2013-07-22 22:32:00,
2013-07-22 23:37:00,59.9,58.5,30.01,NNE,22,6.0,10.0,95,0.00,,,0.03,meteohub,2013-07-22 22:37:00,
2013-07-22 23:43:00,59.9,58.5,30.01,SE,135,4.0,10.0,95,0.00,,,0.03,meteohub,2013-07-22 22:43:00,
2013-07-22 23:48:00,59.9,58.5,30.01,ENE,67,6.0,11.0,95,0.00,,,0.03,meteohub,2013-07-22 22:48:00,
2013-07-22 23:53:00,59.9,58.5,29.98,East,90,6.0,11.0,95,0.00,,,0.03,meteohub,2013-07-22 22:53:00,
2013-07-22 23:58:00,59.9,58.5,29.98,East,90,4.0,11.0,95,0.00,,,0.03,meteohub,2013-07-22 22:58:00,